Location: Unspecified
(0.0000°N, 0.0000°E)
Time: 18:02:58
(UTC+00:00)

Vanguard 2 Rocket - Pass Details

Date: 25 January 2020
Orbit: 554 x 3327 km, 32.9° (Epoch: 20 February)

Event Time Altitude Azimuth Distance (km) Brightness Sun altitude
Rises 19:05:23 0° 231° (SW) 7,161 12.9 -12.5°
Reaches altitude 10° 19:15:10 10° 207° (SSW) 5,665 11.6 -14.8°
Maximum altitude 19:21:43 13° 183° (S) 4,918 10.9 -16.4°
Drops below altitude 10° 19:27:16 10° 159° (SSE) 4,676 10.5 -17.7°
Sets 19:33:27 0° 133° (SE) 5,018 10.4 -19.1°
